Location: Chagrin Falls Park
(41.4139°N, 81.3865°W)
Time: 09:32:37
(UTC+00:00)

FO-29 - Visible Passes

Search period start: 28 October 2021 00:00
Search period end: 07 November 2021 00:00
Orbit: 800 x 1321 km, 98.6° (Epoch: 27 October)

Date Brightness Start Highest point End Pass type
(mag) Time Alt. Az. Time Alt. Az. Time Alt. Az.
28 Oct 11.0 01:00:23 27° NNE 01:00:23 27° NNE 01:03:41 10° N visible
28 Oct 11.8 02:46:53 20° NW 02:46:53 20° NW 02:48:57 10° NNW visible
29 Oct 11.4 00:04:49 15° NE 00:04:49 15° NE 00:07:03 10° NNE visible
29 Oct 11.2 01:51:18 28° N 01:51:18 28° N 01:54:08 10° NNW visible
30 Oct 11.1 00:55:43 24° NNE 00:55:43 24° NNE 00:58:31 10° N visible
30 Oct 11.9 02:42:13 19° NNW 02:42:13 19° NNW 02:43:54 10° NNW visible
31 Oct 11.5 00:00:08 13° NE 00:00:08 13° NE 00:01:40 10° NNE visible
31 Oct 11.3 01:46:38 25° N 01:46:38 25° N 01:49:01 10° N visible
01 Nov 11.2 00:51:03 21° NNE 00:51:03 21° NNE 00:53:20 10° N visible
01 Nov 11.9 02:37:32 17° NNW 02:37:32 17° NNW 02:38:51 10° NNW visible
01 Nov 11.5 23:55:27 12° NE 23:55:27 12° NE 23:56:14 10° NNE visible
02 Nov 11.4 01:41:57 22° N 01:41:57 22° N 01:43:53 10° N visible
03 Nov 11.3 00:46:21 18° NNE 00:46:21 18° NNE 00:48:07 10° N visible
03 Nov 12.0 02:32:51 15° NNW 02:32:51 15° NNW 02:33:47 10° NNW visible
04 Nov 11.5 01:37:14 19° N 01:37:14 19° N 01:38:45 10° N visible
05 Nov 11.4 00:41:39 15° NNE 00:41:39 15° NNE 00:42:54 10° N visible
05 Nov 12.1 02:28:08 13° NNW 02:28:08 13° NNW 02:28:42 10° NNW visible
06 Nov 11.6 01:32:32 16° N 01:32:32 16° N 01:33:36 10° N visible
